Location: Caltech
(34.1382°N, 118.1253°W)
Time: 15:52:28
(UTC-07:00)

Cosmos 2084 - Visible Passes

Search period start: 30 October 2014 00:00
Search period end: 08 November 2014 23:00
Orbit: 567 x 631 km, 62.8° (Epoch: 29 October)

Date Brightness Start Highest point End Pass type
(mag) Time Alt. Az. Time Alt. Az. Time Alt. Az.
31 Oct 6.1 19:52:06 10° N 19:52:11 10° N 19:52:11 10° N visible
01 Nov 5.8 20:02:20 10° N 20:03:12 15° N 20:03:12 15° N visible
02 Nov 5.6 19:12:56 10° NNW 19:14:22 20° NNW 19:14:22 20° NNW visible
03 Nov 5.4 17:45:58 10° NNE 17:48:12 13° NE 17:48:57 13° NE visible
03 Nov 5.5 19:23:48 10° NW 19:25:42 25° NW 19:25:42 25° NW visible
04 Nov 4.8 17:55:47 10° N 17:59:24 23° NE 18:00:31 21° ENE visible
04 Nov 5.7 19:35:00 10° NW 19:37:18 25° WNW 19:37:18 25° WNW visible
05 Nov 4.0 18:06:11 10° NNW 18:10:29 40° NE 18:12:27 26° ESE visible
05 Nov 6.2 19:46:45 10° WNW 19:49:15 18° WSW 19:49:15 18° WSW visible
06 Nov 3.5 18:16:53 10° NNW 18:21:27 79° ENE 18:24:55 17° SE visible
07 Nov 4.4 18:27:52 10° NW 18:32:18 52° WSW 18:36:43 10° SSE visible
08 Nov 5.7 18:39:15 10° WNW 18:43:03 26° WSW 18:46:50 10° S visible
